When you browse on this site, cookies collect data to enhance your experience and personalize the content and advertising you see.
Visit our Privacy Policy to learn more. By continuing to use the site, you agree to this use of cookies and data.
  • In Romania
  • List of Countries
  • For 7 days
  • Water Temperature
  • Weather Map
  • Weather Widgets
  • user-avatar
    Login

    Hourly Weather Cluj-Napoca

    Today, 27 May, Wednesday

    Time Temperature Precipitation Wind Pressure Humidity
    00:00 +7°C° 0 mm 2 mps 729 mmHg 90%
    01:00 +7°C° 0 mm 2 mps 729 mmHg 91%
    02:00 +7°C° 0 mm 2 mps 730 mmHg 91%
    03:00 +8°C° 0 mm 1 mps 730 mmHg 91%
    04:00 +8°C° 0 mm 1 mps 730 mmHg 90%
    05:00 +8°C° 0 mm 1 mps 730 mmHg 90%
    06:00 +10°C° 0 mm 1 mps 730 mmHg 87%
    07:00 +10°C° 0 mm 2 mps 730 mmHg 84%
    08:00 +12°C° 0 mm 2 mps 730 mmHg 82%
    09:00 +13°C° 0.2 mm 2 mps 731 mmHg 79%
    10:00 +13°C° 0.2 mm 3 mps 731 mmHg 77%
    11:00 +14°C° 0.2 mm 3 mps 731 mmHg 74%
    12:00 +14°C° 0.9 mm 3 mps 731 mmHg 74%
    13:00 +16°C° 0.9 mm 3 mps 730 mmHg 75%
    14:00 +16°C° 0.9 mm 3 mps 730 mmHg 75%
    15:00 +16°C° 0.5 mm 3 mps 730 mmHg 75%
    16:00 +16°C° 0.5 mm 3 mps 729 mmHg 76%
    17:00 +16°C° 0.5 mm 3 mps 729 mmHg 76%
    18:00 +13°C° 0.4 mm 3 mps 729 mmHg 80%
    19:00 +12°C° 0.4 mm 3 mps 729 mmHg 84%
    20:00 +12°C° 0.4 mm 2 mps 729 mmHg 88%
    21:00 +10°C° 0.1 mm 2 mps 729 mmHg 89%
    22:00 +10°C° 0.1 mm 2 mps 729 mmHg 89%
    23:00 +9°C° 0.1 mm 2 mps 729 mmHg 90%

    Tomorrow, 28 May, Thursday

    Time Temperature Precipitation Wind Pressure Humidity
    00:00 +10°C° 0.1 mm 1 mps 729 mmHg 91%
    01:00 +9°C° 0.1 mm 1 mps 728 mmHg 91%
    02:00 +9°C° 0.1 mm 1 mps 728 mmHg 92%
    03:00 +9°C° 0 mm 1 mps 728 mmHg 92%
    04:00 +9°C° 0 mm 1 mps 728 mmHg 92%
    05:00 +9°C° 0 mm 1 mps 728 mmHg 92%
    06:00 +9°C° 0 mm 2 mps 727 mmHg 89%
    07:00 +12°C° 0 mm 2 mps 727 mmHg 86%
    08:00 +13°C° 0 mm 2 mps 727 mmHg 83%
    09:00 +13°C° 0.3 mm 3 mps 727 mmHg 80%
    10:00 +13°C° 0.3 mm 3 mps 727 mmHg 76%
    11:00 +14°C° 0.3 mm 4 mps 726 mmHg 73%
    12:00 +15°C° 0.3 mm 4 mps 726 mmHg 71%
    13:00 +16°C° 0.3 mm 5 mps 725 mmHg 70%
    14:00 +16°C° 0.3 mm 5 mps 725 mmHg 69%
    15:00 +16°C° 0.5 mm 5 mps 725 mmHg 71%
    16:00 +16°C° 0.5 mm 5 mps 724 mmHg 73%
    17:00 +16°C° 0.5 mm 5 mps 724 mmHg 74%
    18:00 +14°C° 0.5 mm 4 mps 724 mmHg 79%
    19:00 +13°C° 0.5 mm 4 mps 724 mmHg 83%
    20:00 +11°C° 0.5 mm 3 mps 724 mmHg 87%
    21:00 +11°C° 0 mm 3 mps 724 mmHg 88%
    22:00 +10°C° 0 mm 3 mps 724 mmHg 90%
    23:00 +9°C° 0 mm 2 mps 724 mmHg 91%

    Day after tomorrow, 29 May, Friday

    Time Temperature Precipitation Wind Pressure Humidity
    00:00 +9°C° 0 mm 2 mps 724 mmHg 91%
    01:00 +9°C° 0 mm 2 mps 724 mmHg 92%
    02:00 +8°C° 0 mm 2 mps 724 mmHg 92%
    03:00 +8°C° 0 mm 2 mps 724 mmHg 93%
    04:00 +8°C° 0 mm 2 mps 724 mmHg 93%
    05:00 +7°C° 0 mm 2 mps 724 mmHg 93%
    06:00 +9°C° 0 mm 2 mps 724 mmHg 90%
    07:00 +12°C° 0 mm 2 mps 724 mmHg 87%
    08:00 +13°C° 0 mm 3 mps 724 mmHg 84%
    09:00 +13°C° 0.3 mm 3 mps 724 mmHg 83%
    10:00 +14°C° 0.3 mm 4 mps 725 mmHg 82%
    11:00 +15°C° 0.3 mm 4 mps 725 mmHg 81%
    12:00 +15°C° 0.4 mm 4 mps 724 mmHg 78%
    13:00 +16°C° 0.4 mm 5 mps 724 mmHg 76%
    14:00 +17°C° 0.4 mm 5 mps 724 mmHg 73%
    15:00 +16°C° 0.4 mm 5 mps 724 mmHg 74%
    16:00 +16°C° 0.4 mm 5 mps 723 mmHg 75%
    17:00 +16°C° 0.4 mm 5 mps 723 mmHg 77%
    18:00 +14°C° 0.1 mm 4 mps 723 mmHg 81%
    19:00 +13°C° 0.1 mm 4 mps 723 mmHg 85%
    20:00 +12°C° 0.1 mm 3 mps 723 mmHg 90%
    21:00 +11°C° 0 mm 3 mps 723 mmHg 90%
    22:00 +10°C° 0 mm 3 mps 723 mmHg 91%
    23:00 +9°C° 0 mm 3 mps 724 mmHg 92%

    30 May, Saturday

    Time Temperature Precipitation Wind Pressure Humidity
    00:00 +9°C° 0 mm 2 mps 724 mmHg 91%
    01:00 +9°C° 0 mm 2 mps 724 mmHg 91%
    02:00 +8°C° 0 mm 2 mps 723 mmHg 90%
    03:00 +8°C° 0 mm 2 mps 723 mmHg 90%
    04:00 +9°C° 0 mm 1 mps 723 mmHg 90%
    05:00 +8°C° 0 mm 1 mps 723 mmHg 91%
    06:00 +10°C° 0 mm 1 mps 724 mmHg 86%
    07:00 +12°C° 0 mm 2 mps 724 mmHg 82%
    08:00 +14°C° 0 mm 2 mps 724 mmHg 77%
    09:00 +15°C° 0 mm 2 mps 724 mmHg 74%
    10:00 +16°C° 0 mm 3 mps 724 mmHg 70%
    11:00 +17°C° 0 mm 4 mps 724 mmHg 67%
    12:00 +17°C° 0.1 mm 4 mps 724 mmHg 66%
    13:00 +17°C° 0.1 mm 4 mps 724 mmHg 65%
    14:00 +17°C° 0.1 mm 5 mps 724 mmHg 65%
    15:00 +16°C° 0.1 mm 5 mps 723 mmHg 67%
    16:00 +16°C° 0.1 mm 5 mps 723 mmHg 68%
    17:00 +16°C° 0.1 mm 5 mps 723 mmHg 70%
    18:00 +14°C° 0 mm 4 mps 723 mmHg 76%
    19:00 +12°C° 0 mm 3 mps 723 mmHg 81%
    20:00 +12°C° 0 mm 2 mps 723 mmHg 86%
    21:00 +10°C° 0 mm 2 mps 723 mmHg 87%
    22:00 +9°C° 0 mm 2 mps 724 mmHg 89%
    23:00 +10°C° 0 mm 1 mps 724 mmHg 90%

    31 May, Sunday

    Time Temperature Precipitation Wind Pressure Humidity
    00:00 +9°C° 0 mm 1 mps 724 mmHg 90%
    01:00 +9°C° 0 mm 1 mps 723 mmHg 90%
    02:00 +9°C° 0 mm 1 mps 723 mmHg 91%
    03:00 +9°C° 0 mm 1 mps 723 mmHg 91%
    04:00 +8°C° 0 mm 1 mps 723 mmHg 90%
    05:00 +8°C° 0 mm 1 mps 723 mmHg 90%
    06:00 +10°C° 0 mm 1 mps 723 mmHg 85%
    07:00 +12°C° 0 mm 1 mps 723 mmHg 79%
    08:00 +14°C° 0 mm 1 mps 723 mmHg 74%
    09:00 +14°C° 0.1 mm 1 mps 723 mmHg 73%
    10:00 +15°C° 0.1 mm 2 mps 723 mmHg 72%
    11:00 +16°C° 0.1 mm 2 mps 723 mmHg 71%
    12:00 +16°C° 0.2 mm 2 mps 723 mmHg 72%
    13:00 +16°C° 0.2 mm 3 mps 722 mmHg 73%
    14:00 +14°C° 0.2 mm 3 mps 722 mmHg 74%
    15:00 +16°C° 0.2 mm 3 mps 722 mmHg 74%
    16:00 +16°C° 0.2 mm 3 mps 722 mmHg 73%
    17:00 +15°C° 0.2 mm 4 mps 722 mmHg 73%
    18:00 +14°C° 0.1 mm 3 mps 721 mmHg 79%
    19:00 +13°C° 0.1 mm 2 mps 721 mmHg 85%
    20:00 +12°C° 0.1 mm 1 mps 721 mmHg 90%
    21:00 +11°C° 0 mm 1 mps 721 mmHg 91%
    22:00 +11°C° 0 mm 1 mps 721 mmHg 91%
    23:00 +11°C° 0 mm 1 mps 721 mmHg 91%

    1 June, Monday

    Time Temperature Precipitation Wind Pressure Humidity
    00:00 +10°C° 0 mm 0 mps 721 mmHg 91%
    01:00 +10°C° 0 mm 0 mps 721 mmHg 91%
    02:00 +10°C° 0 mm 0 mps 721 mmHg 90%
    03:00 +10°C° 0.1 mm 0 mps 721 mmHg 91%
    04:00 +10°C° 0.1 mm 0 mps 721 mmHg 92%
    05:00 +10°C° 0.1 mm 0 mps 720 mmHg 93%
    06:00 +10°C° 0.4 mm 0 mps 720 mmHg 93%
    07:00 +10°C° 0.4 mm 0 mps 721 mmHg 94%
    08:00 +10°C° 0.4 mm 0 mps 721 mmHg 94%
    09:00 +11°C° 0.5 mm 0 mps 721 mmHg 94%
    10:00 +11°C° 0.5 mm 0 mps 721 mmHg 94%
    11:00 +11°C° 0.5 mm 0 mps 721 mmHg 93%
    12:00 +13°C° 0.2 mm 1 mps 721 mmHg 92%
    13:00 +13°C° 0.2 mm 1 mps 721 mmHg 91%
    14:00 +13°C° 0.2 mm 1 mps 721 mmHg 90%
    15:00 +14°C° 0.1 mm 1 mps 721 mmHg 85%
    16:00 +15°C° 0.1 mm 1 mps 721 mmHg 80%
    17:00 +16°C° 0.1 mm 1 mps 721 mmHg 76%
    18:00 +15°C° 0.1 mm 1 mps 721 mmHg 80%
    19:00 +14°C° 0.1 mm 1 mps 721 mmHg 85%
    20:00 +12°C° 0.1 mm 1 mps 721 mmHg 89%
    21:00 +12°C° 0 mm 1 mps 721 mmHg 90%
    22:00 +11°C° 0 mm 1 mps 722 mmHg 91%
    23:00 +11°C° 0 mm 1 mps 722 mmHg 91%
    Show more